Location: Heisler
(52.6701°N, 112.2239°W)
Time: 07:43:23
(UTC+00:00)

Envisat - Pass Details

Date: 08 December 2021
Orbit: 764 x 766 km, 98.2° (Epoch: 25 January)

Event Time Altitude Azimuth Distance (km) Brightness Sun altitude
Rises 14:40:42 0° 5° (N) 3,248 6.0 -6.7°
Reaches altitude 10° 14:43:57 10° 343° (NNW) 2,317 5.1 -6.3°
Maximum altitude 14:46:46 15° 309° (NW) 1,980 4.5 -5.9°
Drops below altitude 10° 14:49:34 10° 276° (W) 2,309 4.9 -5.6°
Sets 14:52:48 0° 254° (WSW) 3,230 5.8 -5.1°
